ANZ81 NZAA-VHHH

Flight info

Callsign ANZ81
Flight time N/A
Altitude 34000
Route ELNOS G591 MUGEN/N0496F360 DCT 30S169E DCT OSVAR DCT 25S165E 2143S16300E 20S162E/N0496F380 15S159E 1400S15823E 10S156E 0821S15500E 05S153E DCT PIKOK DCT 01N145E 05N140E/N0490F400 DCT ROR R337 TAC B462 MIA W16 AVMUP A461 NOMAN V533 BETTY
Aircraft B789/H-SDE1E2E3FGHIJ2J3J4J5M1RWXY/LB1D1

Departure

Time N/A
Airport Auckland International Airport (NZAA)

Arrival

Time 2026-05-04 17:59
Airport Hong Kong International Airport (VHHH)
Time Latitude Longitude Altitude Speed Heading
2026-05-04 14:39 -26.50566 166.26995 34075 ft 493 kts 313°
2026-05-04 14:39 -26.28762 166.08349 35604 ft 486 kts 313°
2026-05-04 14:40 -26.10948 165.93173 37636 ft 483 kts 313°
2026-05-04 14:40 -26.00209 165.84055 38031 ft 489 kts 313°
2026-05-04 14:40 -25.78749 165.65902 38043 ft 484 kts 313°
2026-05-04 14:41 -25.57354 165.47889 38034 ft 482 kts 313°
2026-05-04 14:42 -25.14354 165.11931 38028 ft 485 kts 314°
2026-05-04 14:42 -24.91995 164.95030 38039 ft 494 kts 321°
2026-05-04 14:43 -24.68081 164.80042 38026 ft 495 kts 322°
2026-05-04 14:43 -24.44088 164.65113 38026 ft 496 kts 322°
2026-05-04 14:44 -24.20009 164.50199 38006 ft 496 kts 322°
2026-05-04 14:44 -23.95854 164.35304 38009 ft 498 kts 322°
2026-05-04 14:45 -23.71758 164.20510 38009 ft 496 kts 322°
2026-05-04 14:45 -23.47643 164.05767 38024 ft 498 kts 323°
2026-05-04 14:46 -23.23502 163.91070 38001 ft 496 kts 323°
2026-05-04 14:46 -22.99365 163.76437 37998 ft 496 kts 323°
2026-05-04 14:47 -22.75211 163.61855 37999 ft 495 kts 323°
2026-05-04 14:47 -22.51124 163.47371 37991 ft 496 kts 324°
2026-05-04 14:48 -22.26978 163.32910 37989 ft 496 kts 324°
2026-05-04 14:48 -22.02873 163.18532 37998 ft 495 kts 324°
2026-05-04 14:49 -21.78717 163.04179 37983 ft 496 kts 324°
2026-05-04 14:49 -21.54534 162.89900 37965 ft 495 kts 324°
2026-05-04 14:50 -21.30487 162.75771 37980 ft 495 kts 324°
2026-05-04 14:50 -21.06293 162.61608 37983 ft 496 kts 325°
2026-05-04 14:51 -20.82099 162.47499 37973 ft 495 kts 325°
2026-05-04 14:51 -20.57864 162.33417 37976 ft 495 kts 325°
2026-05-04 14:52 -20.33672 162.19411 37971 ft 493 kts 325°
2026-05-04 14:52 -20.09492 162.05463 37970 ft 495 kts 325°
2026-05-04 14:53 -19.85579 161.91079 37957 ft 493 kts 324°
2026-05-04 14:53 -19.61794 161.76362 37964 ft 494 kts 324°
2026-05-04 14:54 -19.38146 161.61796 37961 ft 494 kts 324°
2026-05-04 14:54 -19.14387 161.47211 37955 ft 494 kts 324°
2026-05-04 14:55 -18.90607 161.32663 37949 ft 493 kts 324°
2026-05-04 14:55 -18.66802 161.18148 37952 ft 494 kts 324°
2026-05-04 14:56 -18.42959 161.03656 37954 ft 495 kts 324°
2026-05-04 14:56 -18.19045 160.89169 37953 ft 496 kts 324°
2026-05-04 14:57 -17.95146 160.74737 37940 ft 495 kts 324°
2026-05-04 14:57 -17.71285 160.60373 37950 ft 494 kts 325°
2026-05-04 14:58 -17.47405 160.46042 37937 ft 493 kts 325°
2026-05-04 14:58 -17.23528 160.31758 37941 ft 494 kts 325°
2026-05-04 14:59 -16.99841 160.17628 37933 ft 492 kts 326°
2026-05-04 15:00 -16.64162 159.96424 37934 ft 493 kts 326°
2026-05-04 15:00 -16.40287 159.82286 37927 ft 492 kts 326°
2026-05-04 15:01 -16.04419 159.61121 37933 ft 495 kts 326°
2026-05-04 15:01 -15.80488 159.47050 37917 ft 493 kts 326°
2026-05-04 15:02 -15.56628 159.33058 37918 ft 493 kts 327°
2026-05-04 15:02 -15.32757 159.19098 37910 ft 493 kts 327°
2026-05-04 15:03 -15.08878 159.05170 37904 ft 492 kts 327°
2026-05-04 15:03 -14.85259 158.90884 37905 ft 492 kts 326°
2026-05-04 15:04 -14.61745 158.76332 37908 ft 492 kts 326°
2026-05-04 15:04 -14.38183 158.61803 37909 ft 493 kts 326°
2026-05-04 15:05 -14.14608 158.47302 37900 ft 494 kts 326°
2026-05-04 15:05 -13.90925 158.32835 37897 ft 494 kts 327°
2026-05-04 15:06 -13.67315 158.18532 37901 ft 495 kts 327°
2026-05-04 15:07 -13.31733 157.97048 37896 ft 495 kts 327°
2026-05-04 15:07 -13.07974 157.82744 37901 ft 494 kts 327°
2026-05-04 15:08 -12.84231 157.68481 37898 ft 494 kts 327°
2026-05-04 15:08 -12.60452 157.54229 37904 ft 495 kts 327°
2026-05-04 15:09 -12.36683 157.40013 37898 ft 495 kts 327°
2026-05-04 15:09 -12.12872 157.25802 37887 ft 496 kts 327°
2026-05-04 15:10 -11.77095 157.04506 37880 ft 496 kts 327°
2026-05-04 15:11 -11.41336 156.83285 37878 ft 494 kts 328°
2026-05-04 15:11 -11.17464 156.69154 37878 ft 497 kts 328°
2026-05-04 15:12 -10.93583 156.55044 37884 ft 495 kts 328°
2026-05-04 15:12 -10.69763 156.40997 37882 ft 494 kts 328°
2026-05-04 15:13 -10.46040 156.27032 37878 ft 493 kts 329°
2026-05-04 15:13 -10.22336 156.13104 37877 ft 492 kts 329°
2026-05-04 15:14 -9.98763 155.99274 37879 ft 492 kts 328°
2026-05-04 15:14 -9.75304 155.84961 37884 ft 492 kts 328°
2026-05-04 15:15 -9.51781 155.70662 37885 ft 492 kts 328°
2026-05-04 15:15 -9.28301 155.56411 37886 ft 492 kts 328°
2026-05-04 15:16 -8.93068 155.35070 37887 ft 492 kts 328°
2026-05-04 15:17 -8.57832 155.13775 37879 ft 492 kts 328°
2026-05-04 15:17 -8.22484 154.92466 37881 ft 492 kts 329°
2026-05-04 15:18 -7.98950 154.78314 37882 ft 491 kts 329°
2026-05-04 15:19 -7.63709 154.57156 37883 ft 492 kts 329°
2026-05-04 15:19 -7.28433 154.36019 37882 ft 494 kts 329°
2026-05-04 15:20 -7.04755 154.21853 37881 ft 494 kts 329°
2026-05-04 15:20 -6.85095 154.10104 37882 ft 494 kts 329°
2026-05-04 15:21 -6.61361 153.95935 37880 ft 496 kts 330°
2026-05-04 15:22 -6.25669 153.74658 37884 ft 496 kts 330°
2026-05-04 15:22 -5.90041 153.53453 37886 ft 496 kts 330°
2026-05-04 15:23 -5.66250 153.39311 37878 ft 495 kts 330°
2026-05-04 15:23 -5.42580 153.25255 37875 ft 494 kts 330°
2026-05-04 15:24 -4.96691 152.95660 37886 ft 495 kts 305°
2026-05-04 15:25 -4.80630 152.73203 37895 ft 497 kts 306°
2026-05-04 15:26 -4.56214 152.39422 37900 ft 500 kts 307°
2026-05-04 15:26 -4.31719 152.05597 37900 ft 496 kts 307°
2026-05-04 15:27 -4.07413 151.72074 37887 ft 495 kts 307°
2026-05-04 15:28 -3.83163 151.38667 37882 ft 494 kts 307°
2026-05-04 15:29 -3.58846 151.05205 37883 ft 495 kts 307°
2026-05-04 15:30 -3.01955 150.27052 37881 ft 496 kts 307°
2026-05-04 15:31 -2.77504 149.93512 37887 ft 497 kts 307°
2026-05-04 15:32 -2.36695 149.37593 37880 ft 499 kts 307°
2026-05-04 15:34 -1.95699 148.81481 37884 ft 503 kts 307°
2026-05-04 15:34 -1.70950 148.47635 37883 ft 503 kts 307°
2026-05-04 15:35 -1.46185 148.13782 37884 ft 505 kts 306°
2026-05-04 15:36 -1.21282 147.79755 37883 ft 506 kts 307°
2026-05-04 15:36 -1.04642 147.57028 37886 ft 507 kts 307°
2026-05-04 15:37 -0.87945 147.34224 37884 ft 508 kts 307°
2026-05-04 15:37 -0.71265 147.11449 37883 ft 507 kts 307°
2026-05-04 15:38 -0.54657 146.88775 37883 ft 506 kts 307°
2026-05-04 15:38 -0.38105 146.66180 37883 ft 503 kts 308°
2026-05-04 15:39 -0.21667 146.43743 37879 ft 504 kts 308°
2026-05-04 15:40 0.03458 146.10125 37884 ft 502 kts 314°
2026-05-04 15:40 0.21939 145.89110 37883 ft 503 kts 313°
2026-05-04 15:41 0.40363 145.68092 37882 ft 503 kts 312°
2026-05-04 15:41 0.58800 145.47046 37882 ft 505 kts 312°
2026-05-04 15:42 0.77349 145.25867 37887 ft 507 kts 312°
2026-05-04 15:42 0.95913 145.04668 37882 ft 507 kts 313°
2026-05-04 15:43 1.13804 144.82839 37885 ft 507 kts 310°
2026-05-04 15:43 1.31505 144.60815 37883 ft 508 kts 310°
2026-05-04 15:44 1.49213 144.38778 37881 ft 509 kts 310°
2026-05-04 15:44 1.66825 144.16855 37883 ft 509 kts 310°
2026-05-04 15:45 1.84571 143.94761 37886 ft 510 kts 310°
2026-05-04 15:45 2.02273 143.72712 37882 ft 508 kts 309°
2026-05-04 15:46 2.19950 143.50686 37883 ft 505 kts 309°
2026-05-04 15:46 2.37597 143.28689 37884 ft 507 kts 309°
2026-05-04 15:47 2.55260 143.06662 37880 ft 507 kts 309°
2026-05-04 15:47 2.72925 142.84620 37883 ft 508 kts 309°
2026-05-04 15:48 2.90615 142.62537 37882 ft 508 kts 309°
2026-05-04 15:48 3.17146 142.29393 37876 ft 507 kts 309°
2026-05-04 15:49 3.34807 142.07313 37881 ft 508 kts 309°
2026-05-04 15:49 3.52328 141.85395 37883 ft 507 kts 309°
2026-05-04 15:50 3.70018 141.63251 37886 ft 510 kts 309°
2026-05-04 15:50 3.87766 141.41017 37887 ft 511 kts 309°
2026-05-04 15:51 4.05539 141.18736 37883 ft 512 kts 309°
2026-05-04 15:51 4.23232 140.96537 37881 ft 505 kts 309°
2026-05-04 15:52 4.40774 140.74511 37877 ft 505 kts 309°
2026-05-04 15:52 4.58352 140.52420 37879 ft 506 kts 308°
2026-05-04 15:53 4.75902 140.30345 37878 ft 506 kts 308°
2026-05-04 15:53 4.93444 140.08261 37877 ft 505 kts 309°
2026-05-04 15:54 5.01579 139.96810 37885 ft 507 kts 294°
2026-05-04 15:54 5.07150 139.83875 37886 ft 505 kts 295°
2026-05-04 15:54 5.18475 139.58091 37880 ft 505 kts 294°
2026-05-04 15:55 5.29854 139.32237 37879 ft 507 kts 294°
2026-05-04 15:55 5.41162 139.06508 37875 ft 507 kts 294°
2026-05-04 15:56 5.52569 138.80522 37872 ft 508 kts 294°
2026-05-04 15:56 5.63949 138.54559 37866 ft 507 kts 294°
2026-05-04 15:57 5.75317 138.28587 37859 ft 509 kts 294°
2026-05-04 15:57 5.86691 138.02565 37858 ft 507 kts 294°
2026-05-04 15:58 5.98001 137.76650 37856 ft 505 kts 294°
2026-05-04 15:58 6.09249 137.50842 37852 ft 503 kts 294°
2026-05-04 15:59 6.20466 137.25065 37853 ft 504 kts 294°
2026-05-04 15:59 6.31665 136.99287 37853 ft 503 kts 294°
2026-05-04 16:00 6.42861 136.73480 37852 ft 503 kts 294°
2026-05-04 16:00 6.53929 136.47923 37847 ft 496 kts 294°
2026-05-04 16:01 6.63141 136.26623 37848 ft 495 kts 294°
2026-05-04 16:01 6.75893 135.97088 37849 ft 494 kts 294°
2026-05-04 16:02 6.86852 135.71662 37846 ft 497 kts 294°
2026-05-04 16:03 7.03357 135.33283 37847 ft 498 kts 294°
2026-05-04 16:03 7.12591 135.11771 37856 ft 499 kts 294°
2026-05-04 16:03 7.18100 134.98919 39153 ft 495 kts 294°
2026-05-04 16:04 7.23573 134.86143 39858 ft 502 kts 294°
2026-05-04 16:04 7.39905 134.47813 39903 ft 495 kts 293°
2026-05-04 16:05 7.50651 134.22181 39858 ft 496 kts 294°
2026-05-04 16:06 7.66774 133.83617 39861 ft 498 kts 294°
2026-05-04 16:07 7.88390 133.31745 39868 ft 501 kts 294°
2026-05-04 16:08 8.10027 132.79611 39887 ft 507 kts 293°
2026-05-04 16:09 8.37129 132.14007 39882 ft 503 kts 292°
2026-05-04 16:10 8.58509 131.62002 39883 ft 499 kts 291°
2026-05-04 16:11 8.79628 131.10408 39898 ft 498 kts 291°
2026-05-04 16:12 9.11295 130.32605 39914 ft 498 kts 291°
2026-05-04 16:13 9.32440 129.80583 39909 ft 498 kts 291°
2026-05-04 16:14 9.54204 129.27189 39909 ft 497 kts 291°
2026-05-04 16:16 9.80498 128.62316 39911 ft 498 kts 291°
2026-05-04 16:17 10.06596 127.97518 39921 ft 498 kts 291°
2026-05-04 16:18 10.27463 127.45409 39920 ft 495 kts 292°
2026-05-04 16:19 10.53175 126.80817 39925 ft 493 kts 291°
2026-05-04 16:20 10.78622 126.16454 39926 ft 487 kts 291°
2026-05-04 16:22 11.03791 125.52352 39931 ft 487 kts 291°
2026-05-04 16:23 11.41476 124.80322 39944 ft 487 kts 309°
2026-05-04 16:25 11.93400 124.16695 39937 ft 486 kts 309°
2026-05-04 16:26 12.53984 123.42528 39940 ft 485 kts 309°
2026-05-04 16:28 12.94528 122.93555 39936 ft 483 kts 308°
2026-05-04 16:29 13.54966 122.20053 39949 ft 482 kts 308°
2026-05-04 16:31 13.98149 121.67145 39956 ft 483 kts 308°
2026-05-04 16:32 14.49570 121.03701 39943 ft 479 kts 308°
2026-05-04 16:33 14.71787 120.87973 39941 ft 486 kts 324°
2026-05-04 16:33 14.77527 120.84054 39943 ft 486 kts 324°
2026-05-04 16:34 14.85972 120.78331 39956 ft 486 kts 323°
2026-05-04 16:35 15.02935 120.66795 39963 ft 485 kts 324°
2026-05-04 16:36 15.11356 120.61063 39970 ft 484 kts 323°
2026-05-04 16:37 15.19829 120.55419 39988 ft 485 kts 329°
2026-05-04 16:38 15.31731 120.48734 39970 ft 487 kts 328°
2026-05-04 16:39 15.46600 120.40368 39980 ft 483 kts 328°
2026-05-04 16:40 15.58402 120.33714 39975 ft 484 kts 328°
2026-05-04 16:41 15.73181 120.25371 39965 ft 482 kts 328°
2026-05-04 16:43 15.87885 120.17056 39958 ft 480 kts 328°
2026-05-04 16:43 15.96668 120.12084 39954 ft 482 kts 328°
2026-05-04 16:45 16.14273 120.02101 39939 ft 478 kts 328°
2026-05-04 16:46 16.28849 119.93819 39932 ft 477 kts 328°
2026-05-04 16:47 16.40499 119.87191 39928 ft 477 kts 328°
2026-05-04 16:48 16.52137 119.80559 39920 ft 477 kts 328°
2026-05-04 16:49 16.63833 119.73886 39919 ft 481 kts 328°
2026-05-04 16:50 16.75558 119.67186 39918 ft 480 kts 328°
2026-05-04 16:51 16.84324 119.62171 39915 ft 478 kts 328°
2026-05-04 16:52 16.95940 119.55518 39908 ft 476 kts 328°
2026-05-04 16:53 17.04684 119.50503 39904 ft 479 kts 328°
2026-05-04 16:54 17.16329 119.43816 39915 ft 476 kts 328°
2026-05-04 16:55 17.33803 119.33764 39921 ft 479 kts 328°
2026-05-04 16:56 17.48381 119.25361 39916 ft 478 kts 327°
2026-05-04 16:57 17.57098 119.20328 39913 ft 476 kts 327°
2026-05-04 16:58 17.68717 119.13612 39912 ft 478 kts 327°
2026-05-04 17:00 17.86181 119.03499 39923 ft 476 kts 327°
2026-05-04 17:01 18.00334 118.94646 39936 ft 469 kts 313°
2026-05-04 17:02 18.09309 118.84694 39933 ft 469 kts 310°
2026-05-04 17:03 18.15989 118.77214 39946 ft 464 kts 309°
2026-05-04 17:03 18.22578 118.69815 39946 ft 464 kts 310°
2026-05-04 17:04 18.31422 118.59872 39949 ft 465 kts 309°
2026-05-04 17:05 18.40277 118.49903 39950 ft 467 kts 309°
2026-05-04 17:06 18.46934 118.42397 39955 ft 467 kts 309°
2026-05-04 17:07 18.52085 118.36583 39960 ft 466 kts 309°
2026-05-04 17:07 18.57241 118.30758 39940 ft 464 kts 309°
2026-05-04 17:08 18.63840 118.23294 39939 ft 463 kts 309°
2026-05-04 17:09 18.68234 118.18320 39942 ft 463 kts 309°
2026-05-04 17:09 18.72633 118.13335 39946 ft 464 kts 309°
2026-05-04 17:10 18.83643 118.00840 39966 ft 467 kts 309°
2026-05-04 17:11 18.88051 117.95831 39957 ft 469 kts 309°
2026-05-04 17:12 18.94750 117.88211 39975 ft 470 kts 309°
2026-05-04 17:13 19.05835 117.75579 39966 ft 469 kts 309°
2026-05-04 17:14 19.14713 117.65443 39971 ft 469 kts 309°
2026-05-04 17:15 19.21363 117.57840 39970 ft 469 kts 309°
2026-05-04 17:16 19.30179 117.47743 39966 ft 465 kts 309°
2026-05-04 17:17 19.38959 117.37673 39966 ft 465 kts 309°
2026-05-04 17:18 19.47741 117.27582 39966 ft 465 kts 309°
2026-05-04 17:19 19.56512 117.17486 39969 ft 465 kts 309°
2026-05-04 17:20 19.65262 117.07397 39978 ft 463 kts 309°
2026-05-04 17:20 19.71804 116.99842 39979 ft 464 kts 309°
2026-05-04 17:21 19.80546 116.89732 39986 ft 465 kts 309°
2026-05-04 17:22 19.84895 116.84696 39988 ft 465 kts 309°
2026-05-04 17:23 19.93630 116.74567 39986 ft 464 kts 309°
2026-05-04 17:24 20.00008 116.66837 39999 ft 460 kts 300°
2026-05-04 17:25 20.06066 116.54903 39988 ft 459 kts 295°
2026-05-04 17:26 20.11998 116.42888 39989 ft 459 kts 295°
2026-05-04 17:27 20.19397 116.27859 39992 ft 458 kts 295°
2026-05-04 17:28 20.25303 116.15836 39998 ft 458 kts 295°
2026-05-04 17:29 20.34136 115.97806 39994 ft 457 kts 295°
2026-05-04 17:31 20.41474 115.82782 39994 ft 457 kts 295°
2026-05-04 17:32 20.48800 115.67743 39999 ft 457 kts 295°
2026-05-04 17:33 20.54697 115.55768 39999 ft 458 kts 301°
2026-05-04 17:34 20.61164 115.48161 40002 ft 464 kts 312°
2026-05-04 17:34 20.63470 115.45749 40001 ft 465 kts 312°
2026-05-04 17:35 20.75016 115.33657 40004 ft 465 kts 312°
2026-05-04 17:36 20.79623 115.28823 40023 ft 464 kts 312°
2026-05-04 17:36 20.84218 115.23997 39997 ft 462 kts 312°
2026-05-04 17:37 20.88795 115.19185 39998 ft 461 kts 311°
2026-05-04 17:37 20.93374 115.14367 39996 ft 461 kts 311°
2026-05-04 17:38 20.97923 115.09577 39997 ft 462 kts 311°
2026-05-04 17:38 21.02503 115.04749 40004 ft 462 kts 311°
2026-05-04 17:39 21.09383 114.97492 40009 ft 463 kts 311°
2026-05-04 17:39 21.13971 114.92646 40011 ft 463 kts 311°
2026-05-04 17:40 21.18575 114.87777 39433 ft 470 kts 311°
2026-05-04 17:40 21.20905 114.85312 38764 ft 470 kts 311°
2026-05-04 17:40 21.23227 114.82857 37994 ft 468 kts 311°
2026-05-04 17:41 21.25542 114.80406 37229 ft 467 kts 311°
2026-05-04 17:41 21.27849 114.77961 36503 ft 465 kts 311°
2026-05-04 17:42 21.34364 114.71054 34529 ft 459 kts 310°
2026-05-04 17:42 21.36602 114.68678 33848 ft 457 kts 310°
2026-05-04 17:42 21.38860 114.66281 33105 ft 455 kts 310°
2026-05-04 17:42 21.41100 114.63900 32382 ft 453 kts 310°
2026-05-04 17:43 21.43335 114.61526 31668 ft 450 kts 310°
2026-05-04 17:43 21.45559 114.59169 30981 ft 449 kts 312°
2026-05-04 17:43 21.47995 114.57058 30312 ft 452 kts 320°
2026-05-04 17:43 21.50738 114.55363 29588 ft 456 kts 329°
2026-05-04 17:44 21.53715 114.54134 28857 ft 459 kts 335°
2026-05-04 17:44 21.56742 114.53073 28107 ft 456 kts 335°
2026-05-04 17:44 21.59624 114.51769 27385 ft 444 kts 326°
2026-05-04 17:44 21.62206 114.50018 26686 ft 433 kts 317°
2026-05-04 17:45 21.64437 114.47904 26010 ft 424 kts 309°
2026-05-04 17:45 21.66441 114.45605 25338 ft 420 kts 308°
2026-05-04 17:45 21.68428 114.43325 24664 ft 417 kts 308°
2026-05-04 17:45 21.70369 114.41077 24024 ft 414 kts 308°
2026-05-04 17:46 21.72324 114.38809 23341 ft 411 kts 308°
2026-05-04 17:46 21.74266 114.36562 22573 ft 408 kts 308°
2026-05-04 17:46 21.76195 114.34335 21827 ft 405 kts 309°
2026-05-04 17:46 21.78109 114.32119 21099 ft 402 kts 309°
2026-05-04 17:47 21.80003 114.29923 20389 ft 399 kts 309°
2026-05-04 17:47 21.81887 114.27739 19687 ft 396 kts 309°
2026-05-04 17:47 21.83755 114.25575 19011 ft 392 kts 309°
2026-05-04 17:47 21.85603 114.23432 18349 ft 389 kts 309°
2026-05-04 17:48 21.87438 114.21305 17618 ft 386 kts 309°
2026-05-04 17:48 21.89186 114.19139 16880 ft 379 kts 302°
2026-05-04 17:48 21.90526 114.16727 16141 ft 373 kts 296°
2026-05-04 17:48 21.91790 114.14294 15418 ft 370 kts 296°
2026-05-04 17:49 21.93029 114.11880 14724 ft 367 kts 296°
2026-05-04 17:49 21.94245 114.09522 14051 ft 364 kts 296°
2026-05-04 17:49 21.95489 114.07124 13312 ft 360 kts 296°
2026-05-04 17:49 21.96688 114.04801 12567 ft 358 kts 296°
2026-05-04 17:50 21.97894 114.02465 11845 ft 356 kts 296°
2026-05-04 17:50 21.99092 114.00145 11127 ft 353 kts 296°
2026-05-04 17:50 22.00273 113.97853 10403 ft 348 kts 297°
2026-05-04 17:50 22.01444 113.95586 9711 ft 344 kts 297°
2026-05-04 17:51 22.02603 113.93338 8959 ft 342 kts 296°
2026-05-04 17:51 22.03749 113.91110 8232 ft 338 kts 296°
2026-05-04 17:51 22.04887 113.88895 7517 ft 336 kts 297°
2026-05-04 17:51 22.06017 113.86703 6814 ft 333 kts 297°
2026-05-04 17:52 22.07136 113.84528 6095 ft 330 kts 297°
2026-05-04 17:52 22.08239 113.82371 5367 ft 327 kts 298°
2026-05-04 17:52 22.09333 113.80262 4961 ft 314 kts 298°
2026-05-04 17:52 22.10423 113.78323 4999 ft 297 kts 307°
2026-05-04 17:53 22.12021 113.76935 4986 ft 295 kts 332°
2026-05-04 17:53 22.13804 113.75981 4783 ft 280 kts 335°
2026-05-04 17:53 22.15557 113.75137 4395 ft 272 kts 336°
2026-05-04 17:53 22.17253 113.74320 4019 ft 263 kts 337°
2026-05-04 17:54 22.18884 113.73500 3654 ft 254 kts 336°
2026-05-04 17:54 22.20461 113.72703 3350 ft 246 kts 337°
2026-05-04 17:54 22.21997 113.71981 3066 ft 235 kts 346°
2026-05-04 17:54 22.23538 113.71932 2889 ft 213 kts 15°
2026-05-04 17:55 22.24816 113.72571 2705 ft 197 kts 39°
2026-05-04 17:55 22.25817 113.73493 2536 ft 186 kts 43°
2026-05-04 17:55 22.26784 113.74392 2379 ft 181 kts 43°
2026-05-04 17:55 22.27733 113.75277 2238 ft 178 kts 46°
2026-05-04 17:56 22.28303 113.76400 2000 ft 169 kts 78°
2026-05-04 17:56 22.28691 113.77544 2019 ft 159 kts 69°
2026-05-04 17:56 22.29080 113.78680 1850 ft 158 kts 72°
2026-05-04 17:56 22.29431 113.79729 1660 ft 141 kts 73°
2026-05-04 17:57 22.29737 113.80696 1469 ft 135 kts 72°
2026-05-04 17:57 22.30047 113.81655 1293 ft 135 kts 72°
2026-05-04 17:57 22.30362 113.82625 1126 ft 136 kts 73°
2026-05-04 17:57 22.30655 113.83562 939 ft 130 kts 71°
2026-05-04 17:58 22.30964 113.84518 784 ft 142 kts 72°
2026-05-04 17:58 22.31287 113.85525 597 ft 139 kts 73°
2026-05-04 17:58 22.31592 113.86476 401 ft 132 kts 73°
2026-05-04 17:58 22.31895 113.87422 219 ft 136 kts 73°
2026-05-04 17:59 22.32206 113.88382 46 ft 133 kts 73°
2026-05-04 17:59 22.32471 113.89204 37 ft 96 kts 71°
2026-05-04 17:59 22.32801 113.90229 38 ft 38 kts 72°
2026-05-04 18:00 22.32812 113.90487 38 ft 33 kts 98°
2026-05-04 18:00 22.32781 113.90733 38 ft 23 kts 74°
2026-05-04 18:00 22.32831 113.90888 38 ft 22 kts 71°
2026-05-04 18:00 22.32886 113.91058 38 ft 26 kts 70°
2026-05-04 18:01 22.32950 113.91258 38 ft 30 kts 71°
2026-05-04 18:01 22.33021 113.91481 38 ft 33 kts 71°
2026-05-04 18:01 22.33099 113.91724 38 ft 35 kts 70°
2026-05-04 18:02 22.33166 113.92030 38 ft 9 kts 145°
2026-05-04 18:02 22.33064 113.92070 38 ft 22 kts 160°
2026-05-04 18:02 22.32887 113.92140 38 ft 32 kts 162°
2026-05-04 18:02 22.32670 113.92217 38 ft 32 kts 161°
2026-05-04 18:03 22.32460 113.92295 38 ft 32 kts 160°
2026-05-04 18:03 22.32256 113.92371 38 ft 30 kts 160°
2026-05-04 18:03 22.32135 113.92434 38 ft 12 kts 114°
2026-05-04 18:03 22.32149 113.92523 38 ft 15 kts 71°
2026-05-04 18:04 22.32188 113.92645 38 ft 14 kts 71°
2026-05-04 18:04 22.32157 113.92704 38 ft 8 kts 164°
2026-05-04 18:04 22.31947 113.92777 39 ft 25 kts 160°
2026-05-04 18:05 22.31783 113.92849 38 ft 25 kts 156°
2026-05-04 18:05 22.31634 113.92905 38 ft 17 kts 161°
2026-05-04 18:05 22.31551 113.92922 38 ft 10 kts 197°
2026-05-04 18:05 22.31510 113.92907 38 ft 7 kts 189°
2026-05-04 18:06 22.31431 113.92929 38 ft 2 kts 160°
2026-05-04 18:06 22.31428 113.92930 38 ft 0 kts 160°